| time (UTC) | temp F | wind direction | speed knots | gust knots | rain 1hr in | rain 24hr in | rain mn in | humidity % | barometer mb |
| 20260505102017 | 57 | 0.0 | 0.9 | 0.08 | 0.08 | 0.08 | 88 | 1006.6 | |
| 20260505101016 | 58 | 0.0 | 0.0 | 0.08 | 0.08 | 0.08 | 87 | 1007.0 | |
| 20260505100017 | 58 | 0.0 | 0.0 | 0.07 | 0.07 | 0.07 | 86 | 1007.4 | |
| 20260505095017 | 58 | 0.0 | 0.9 | 0.07 | 0.07 | 0.07 | 85 | 1007.6 | |
| 20260505094016 | 59 | 338 | 0.9 | 3.5 | 0.03 | 0.03 | 0.03 | 84 | 1007.6 |
| 20260505093016 | 60 | 0 | 0.9 | 3.5 | 0.00 | 0.00 | 0.00 | 82 | 1007.5 |
| 20260505092017 | 60 | 315 | 0.9 | 3.5 | 0.00 | 0.00 | 0.00 | 80 | 1007.2 |
| 20260505091016 | 61 | 315 | 0.9 | 5.2 | 0.00 | 0.00 | 0.00 | 78 | 1007.1 |
| 20260505090016 | 61 | 0.0 | 1.7 | 0.00 | 0.00 | 0.00 | 76 | 1006.6 | |
| 20260505085016 | 60 | 158 | 0.9 | 3.5 | 0.00 | 0.00 | 0.00 | 77 | 1005.9 |
| 20260505084016 | 59 | 0.0 | 0.0 | 0.00 | 0.00 | 0.00 | 80 | 1005.9 | |
| 20260505083016 | 59 | 0.0 | 0.0 | 0.00 | 0.00 | 0.00 | 79 | 1005.5 | |
| 20260505082016 | 59 | 0.0 | 0.0 | 0.00 | 0.00 | 0.00 | 79 | 1005.4 | |
| 20260505081036 | 59 | 0.0 | 0.0 | 0.00 | 0.00 | 0.00 | 79 | 1004.9 | |
| 20260505080016 | 60 | 0.0 | 0.0 | 0.00 | 0.00 | 0.00 | 78 | 1004.7 | |
| 20260505075016 | 60 | 0.0 | 0.0 | 0.00 | 0.00 | 0.00 | 77 | 1004.9 | |
| 20260505074016 | 61 | 0.0 | 0.0 | 0.00 | 0.00 | 0.00 | 75 | 1004.9 | |
| 20260505073016 | 61 | 0.0 | 0.0 | 0.00 | 0.00 | 0.00 | 74 | 1004.9 | |
| 20260505072016 | 62 | 0.0 | 0.0 | 0.00 | 0.00 | 0.00 | 73 | 1004.8 | |
| 20260505071016 | 63 | 0.0 | 0.0 | 0.00 | 0.00 | 0.00 | 70 | 1004.6 | |
| 20260505070016 | 64 | 0.0 | 0.0 | 0.00 | 0.00 | 0.00 | 68 | 1004.7 | |
| 20260505065016 | 65 | 0.0 | 0.9 | 0.00 | 0.00 | 0.00 | 67 | 1004.7 | |
| 20260505064016 | 65 | 0.0 | 1.7 | 0.00 | 0.00 | 0.00 | 63 | 1004.6 | |
| 20260505063016 | 66 | 203 | 0.9 | 2.6 | 0.00 | 0.00 | 0.00 | 63 | 1004.4 |
| 20260505062016 | 66 | 203 | 1.7 | 3.5 | 0.00 | 0.00 | 0.00 | 62 | 1004.4 |
| 20260505061016 | 66 | 225 | 1.7 | 4.3 | 0.00 | 0.00 | 0.00 | 61 | 1004.4 |
| 20260505060016 | 67 | 225 | 1.7 | 3.5 | 0.00 | 0.00 | 0.00 | 61 | 1004.3 |
| 20260505055016 | 66 | 225 | 2.6 | 5.2 | 0.00 | 0.00 | 0.00 | 61 | 1004.1 |
| 20260505054016 | 66 | 248 | 1.7 | 3.5 | 0.00 | 0.00 | 0.00 | 62 | 1003.8 |
| 20260505053015 | 66 | 203 | 1.7 | 3.5 | 0.00 | 0.00 | 0.00 | 62 | 1003.8 |
| 20260505052016 | 67 | 203 | 0.9 | 3.5 | 0.00 | 0.00 | 0.00 | 62 | 1003.7 |
| 20260505051015 | 67 | 180 | 1.7 | 6.1 | 0.00 | 0.00 | 0.00 | 62 | 1003.6 |
| 20260505050156 | 67 | 203 | 2.6 | 5.2 | 0.00 | 0.00 | 0.00 | 62 | 1003.7 |
| 20260505041057 | 67 | 203 | 0.9 | 2.6 | 0.00 | 0.00 | 0.00 | 63 | 1004.3 |
| 20260505040037 | 67 | 180 | 1.7 | 2.6 | 0.00 | 0.00 | 0.00 | 62 | 1004.3 |
| 20260505035017 | 67 | 225 | 0.9 | 3.5 | 0.00 | 0.00 | 0.00 | 62 | 1004.3 |
| 20260505034017 | 67 | 225 | 1.7 | 4.3 | 0.00 | 0.00 | 0.00 | 62 | 1004.3 |
| 20260505033017 | 67 | 180 | 0.9 | 2.6 | 0.00 | 0.00 | 0.00 | 62 | 1004.4 |
| 20260505032017 | 67 | 225 | 0.9 | 3.5 | 0.00 | 0.00 | 0.00 | 62 | 1004.3 |
| 20260505031017 | 67 | 180 | 0.9 | 4.3 | 0.00 | 0.00 | 0.00 | 63 | 1004.3 |
| 20260505030017 | 66 | 203 | 0.9 | 2.6 | 0.00 | 0.00 | 0.00 | 65 | 1004.3 |
| 20260505025017 | 64 | 0.0 | 3.5 | 0.00 | 0.00 | 0.00 | 68 | 1004.1 | |
| 20260505024017 | 64 | 0.0 | 0.0 | 0.00 | 0.00 | 0.00 | 70 | 1004.0 | |
| 20260505023037 | 65 | 0.0 | 0.0 | 0.00 | 0.00 | 0.00 | 69 | 1003.8 | |
| 20260505022017 | 65 | 0.0 | 0.0 | 0.00 | 0.00 | 0.00 | 68 | 1003.8 | |
| 20260505021037 | 66 | 0.0 | 0.0 | 0.00 | 0.00 | 0.00 | 68 | 1003.6 | |
| 20260505020017 | 66 | 0.0 | 0.0 | 0.00 | 0.00 | 0.00 | 64 | 1003.4 | |
| 20260505015016 | 67 | 0.0 | 1.7 | 0.00 | 0.00 | 0.00 | 62 | 1003.2 | |
| 20260505014016 | 68 | 0.0 | 0.0 | 0.00 | 0.00 | 0.00 | 61 | 1003.0 | |
| 20260505013017 | 70 | 203 | 0.9 | 3.5 | 0.00 | 0.00 | 0.00 | 58 | 1003.0 |
| 20260505012016 | 70 | 248 | 0.9 | 3.5 | 0.00 | 0.00 | 0.00 | 56 | 1002.8 |
| 20260505011016 | 70 | 248 | 0.9 | 2.6 | 0.00 | 0.00 | 0.00 | 56 | 1002.8 |
| 20260505010016 | 71 | 180 | 0.9 | 2.6 | 0.00 | 0.00 | 0.00 | 56 | 1002.9 |
| 20260505005016 | 71 | 180 | 0.9 | 2.6 | 0.00 | 0.00 | 0.00 | 56 | 1003.0 |
| 20260505004016 | 71 | 203 | 0.9 | 1.7 | 0.00 | 0.00 | 0.00 | 56 | 1003.0 |
| 20260505003016 | 72 | 248 | 1.7 | 6.1 | 0.00 | 0.00 | 0.00 | 55 | 1003.0 |
| 20260505002016 | 72 | 248 | 0.9 | 2.6 | 0.00 | 0.00 | 0.00 | 55 | 1002.9 |
| 20260505001016 | 73 | 203 | 1.7 | 5.2 | 0.00 | 0.00 | 0.00 | 53 | 1002.9 |
| 20260505000016 | 73 | 225 | 1.7 | 3.5 | 0.00 | 0.00 | 0.00 | 51 | 1003.1 |
| 20260504235016 | 74 | 225 | 1.7 | 8.7 | 0.00 | 0.00 | 0.00 | 50 | 1003.1 |
| 20260504234016 | 74 | 248 | 1.7 | 5.2 | 0.00 | 0.00 | 0.00 | 50 | 1003.3 |
| 20260504233016 | 75 | 225 | 1.7 | 3.5 | 0.00 | 0.00 | 0.00 | 48 | 1003.5 |
| 20260504232016 | 75 | 248 | 2.6 | 5.2 | 0.00 | 0.00 | 0.00 | 48 | 1003.7 |
| 20260504231016 | 75 | 248 | 4.3 | 7.8 | 0.00 | 0.00 | 0.00 | 46 | 1003.9 |
| 20260504230016 | 76 | 225 | 1.7 | 3.5 | 0.00 | 0.00 | 0.00 | 48 | 1003.9 |
| 20260504225016 | 76 | 225 | 3.5 | 7.0 | 0.00 | 0.00 | 0.00 | 45 | 1003.8 |
| 20260504224016 | 76 | 248 | 3.5 | 7.0 | 0.00 | 0.00 | 0.00 | 44 | 1003.9 |
| 20260504223016 | 75 | 225 | 3.5 | 8.7 | 0.00 | 0.00 | 0.00 | 48 | 1003.9 |
| 20260504222016 | 75 | 180 | 1.7 | 3.5 | 0.00 | 0.00 | 0.00 | 56 | 1004.1 |
| 20260504221016 | 75 | 158 | 0.9 | 4.3 | 0.00 | 0.00 | 0.00 | 56 | 1004.1 |
| 20260504220036 | 75 | 180 | 1.7 | 4.3 | 0.00 | 0.00 | 0.00 | 54 | 1004.2 |
| 20260504215016 | 75 | 180 | 1.7 | 5.2 | 0.00 | 0.00 | 0.00 | 55 | 1004.0 |
| 20260504214036 | 74 | 225 | 1.7 | 2.6 | 0.00 | 0.00 | 0.00 | 54 | 1004.0 |
| 20260504213015 | 75 | 225 | 1.7 | 3.5 | 0.00 | 0.00 | 0.00 | 50 | 1004.4 |
| 20260504212036 | 75 | 225 | 0.9 | 1.7 | 0.00 | 0.00 | 0.00 | 53 | 1004.7 |
| 20260504211036 | 75 | 225 | 0.9 | 2.6 | 0.00 | 0.00 | 0.00 | 51 | 1004.9 |
| 20260504210517 | 75 | 0.0 | 1.7 | 0.00 | 0.00 | 0.00 | 50 | 1004.9 | |
| 20260504205516 | 75 | 248 | 0.9 | 3.5 | 0.00 | 0.00 | 0.00 | 50 | 1005.1 |
| 20260504204516 | 75 | 248 | 2.6 | 4.3 | 0.00 | 0.00 | 0.00 | 50 | 1005.2 |
| 20260504203516 | 75 | 248 | 1.7 | 4.3 | 0.00 | 0.00 | 0.00 | 50 | 1005.2 |
| 20260504202517 | 75 | 270 | 2.6 | 5.2 | 0.00 | 0.00 | 0.00 | 51 | 1005.3 |
| 20260504201517 | 75 | 248 | 2.6 | 6.1 | 0.00 | 0.00 | 0.00 | 54 | 1005.6 |
| 20260504200516 | 74 | 225 | 2.6 | 6.1 | 0.00 | 0.00 | 0.00 | 54 | 1005.6 |
| 20260504195516 | 74 | 248 | 2.6 | 5.2 | 0.00 | 0.00 | 0.00 | 54 | 1005.8 |
| 20260504194517 | 75 | 225 | 2.6 | 5.2 | 0.00 | 0.00 | 0.00 | 54 | 1005.9 |
| 20260504193516 | 74 | 248 | 1.7 | 3.5 | 0.00 | 0.00 | 0.00 | 58 | 1005.9 |
| 20260504192516 | 72 | 203 | 3.5 | 9.6 | 0.00 | 0.00 | 0.00 | 57 | 1006.0 |
| 20260504191516 | 71 | 225 | 1.7 | 2.6 | 0.00 | 0.00 | 0.00 | 63 | 1006.3 |
| 20260504190516 | 69 | 248 | 0.9 | 3.5 | 0.00 | 0.00 | 0.00 | 65 | 1006.6 |
| 20260504185516 | 69 | 248 | 0.9 | 1.7 | 0.00 | 0.00 | 0.00 | 63 | 1006.8 |
| 20260504184516 | 69 | 225 | 2.6 | 3.5 | 0.00 | 0.00 | 0.00 | 62 | 1006.9 |
| 20260504183516 | 69 | 225 | 1.7 | 3.5 | 0.00 | 0.00 | 0.00 | 62 | 1007.0 |
| 20260504182516 | 69 | 225 | 2.6 | 5.2 | 0.00 | 0.00 | 0.00 | 60 | 1006.8 |
| 20260504181516 | 69 | 225 | 1.7 | 6.1 | 0.00 | 0.00 | 0.00 | 60 | 1006.8 |
| 20260504180516 | 69 | 248 | 3.5 | 5.2 | 0.00 | 0.00 | 0.00 | 60 | 1006.8 |
| 20260504175516 | 70 | 248 | 3.5 | 6.1 | 0.00 | 0.00 | 0.00 | 58 | 1006.5 |
| 20260504174516 | 71 | 225 | 3.5 | 5.2 | 0.00 | 0.00 | 0.00 | 58 | 1006.3 |
| 20260504173516 | 72 | 225 | 2.6 | 5.2 | 0.00 | 0.00 | 0.00 | 56 | 1006.1 |
| 20260504172516 | 72 | 225 | 3.5 | 6.1 | 0.00 | 0.00 | 0.00 | 59 | 1005.8 |
| 20260504171516 | 72 | 180 | 4.3 | 12.2 | 0.00 | 0.00 | 0.00 | 61 | 1006.0 |
| 20260504170556 | 70 | 203 | 2.6 | 4.3 | 0.00 | 0.00 | 0.00 | 61 | 1006.2 |
| 20260504150517 | 64 | 203 | 1.7 | 5.2 | 0.00 | 0.00 | 0.00 | 68 | 1007.2 |
| 20260504140517 | 61 | 203 | 1.7 | 4.3 | 0.00 | 0.00 | 0.00 | 67 | 1007.2 |
| 20260504130517 | 56 | 225 | 1.7 | 4.3 | 0.00 | 0.00 | 0.00 | 74 | 1007.7 |
| 20260504110517 | 53 | 0.0 | 0.0 | 0.00 | 0.00 | 0.00 | 72 | 1007.6 |